Wetterdaten: Freitag, 31.01.2014
Datum Zeit Temperatur Luftfeuchte Luftdruck Regen Wind Richtung Richtung Taupunkt Windchill Windben
31.01.2014 00:00 -5,0 C 92 % 1004,2 hPa 0,0 l/m 2,1 km/h (1 Bft) O-SO 112 -6,1 C -5,3 C 3,2 km/h (1 Bft)
31.01.2014 00:05 -5,0 C 92 % 1004,2 hPa 0,0 l/m 2,7 km/h (1 Bft) SO 135 -6,1 C -6,0 C 4,3 km/h (1 Bft)
31.01.2014 00:10 -5,0 C 92 % 1004,2 hPa 0,0 l/m 2,3 km/h (1 Bft) N-NW 337 -6,1 C -5,5 C 2,1 km/h (1 Bft)
31.01.2014 00:15 -5,0 C 92 % 1004,2 hPa 0,0 l/m 2,3 km/h (1 Bft) O 90 -6,1 C -5,7 C 4,2 km/h (1 Bft)
31.01.2014 00:20 -5,8 C 91 % 1004,2 hPa 0,0 l/m 1,6 km/h (1 Bft) NO 45 -7,0 C -5,5 C 2,7 km/h (1 Bft)
31.01.2014 00:25 -5,9 C 91 % 1003,8 hPa 0,0 l/m 1,3 km/h (1 Bft) W-SW 247 -7,1 C -5,6 C 0,0 km/h (0 Bft)
31.01.2014 00:30 -6,4 C 91 % 1003,8 hPa 0,0 l/m 0,6 km/h (0 Bft) W 270 -7,6 C -5,9 C 0,0 km/h (0 Bft)
31.01.2014 00:35 -6,4 C 91 % 1003,8 hPa 0,0 l/m 0,6 km/h (0 Bft) N-NO 22 -7,6 C -6,1 C 2,6 km/h (1 Bft)
31.01.2014 00:40 -6,0 C 91 % 1003,8 hPa 0,0 l/m 0,6 km/h (0 Bft) N-NW 337 -7,2 C -6,1 C 2,7 km/h (1 Bft)
31.01.2014 00:45 -6,0 C 91 % 1005,4 hPa 0,0 l/m 1,6 km/h (1 Bft) NO 45 -7,2 C -6,0 C 2,7 km/h (1 Bft)
31.01.2014 00:50 -5,8 C 91 % 1005,4 hPa 0,0 l/m 2,3 km/h (1 Bft) N-NO 22 -7,0 C -6,1 C 6,4 km/h (2 Bft)
31.01.2014 00:55 -5,8 C 91 % 1005,4 hPa 0,0 l/m 1,1 km/h (1 Bft) N 360 -7,0 C -5,7 C 0,0 km/h (0 Bft)
31.01.2014 01:00 -6,1 C 91 % 1005,4 hPa 0,0 l/m 0,6 km/h (0 Bft) O-SO 112 -7,3 C -5,7 C 0,0 km/h (0 Bft)
31.01.2014 01:05 -6,0 C 91 % 1005,9 hPa 0,0 l/m 0,3 km/h (0 Bft) O-SO 112 -7,2 C -5,8 C 0,0 km/h (0 Bft)
31.01.2014 01:10 -6,2 C 91 % 1005,9 hPa 0,0 l/m 0,0 km/h (0 Bft) O-SO 112 -7,4 C -5,9 C 0,0 km/h (0 Bft)
31.01.2014 01:15 -6,3 C 91 % 1005,9 hPa 0,0 l/m 0,0 km/h (0 Bft) O-SO 112 -7,5 C -6,0 C 0,0 km/h (0 Bft)
31.01.2014 01:20 -5,4 C 91 % 1005,9 hPa 0,0 l/m 1,1 km/h (1 Bft) SO 135 -6,6 C -6,0 C 6,8 km/h (2 Bft)
31.01.2014 01:25 -5,4 C 91 % 1006,1 hPa 0,0 l/m 1,8 km/h (1 Bft) N 360 -6,6 C -5,8 C 2,6 km/h (1 Bft)
31.01.2014 01:30 -5,8 C 91 % 1006,1 hPa 0,0 l/m 1,1 km/h (1 Bft) N-NW 337 -7,0 C -5,6 C 0,0 km/h (0 Bft)
31.01.2014 01:35 -5,8 C 91 % 1006,1 hPa 0,0 l/m 1,1 km/h (1 Bft) N 360 -7,0 C -5,7 C 3,2 km/h (1 Bft)
31.01.2014 01:40 -5,5 C 91 % 1006,1 hPa 0,0 l/m 0,8 km/h (0 Bft) N 360 -6,7 C -5,6 C 0,0 km/h (0 Bft)
31.01.2014 01:45 -5,7 C 91 % 1005,8 hPa 0,0 l/m 0,5 km/h (0 Bft) NW 315 -6,9 C -5,5 C 2,7 km/h (1 Bft)
31.01.2014 01:50 -6,1 C 91 % 1005,8 hPa 0,0 l/m 0,3 km/h (0 Bft) W-SW 247 -7,3 C -5,7 C 0,0 km/h (0 Bft)
31.01.2014 01:55 -6,1 C 91 % 1005,8 hPa 0,0 l/m 0,3 km/h (0 Bft) W-SW 247 -7,3 C -5,8 C 0,0 km/h (0 Bft)
31.01.2014 02:00 -6,1 C 91 % 1005,8 hPa 0,0 l/m 0,0 km/h (0 Bft) W-SW 247 -7,3 C -6,0 C 0,0 km/h (0 Bft)
31.01.2014 02:05 -5,8 C 91 % 1006,2 hPa 0,0 l/m 0,8 km/h (0 Bft) S 180 -7,0 C -5,8 C 0,0 km/h (0 Bft)
31.01.2014 02:10 -6,0 C 91 % 1006,2 hPa 0,0 l/m 1,3 km/h (1 Bft) N 360 -7,2 C -5,8 C 2,4 km/h (1 Bft)
31.01.2014 02:15 -6,3 C 91 % 1006,2 hPa 0,0 l/m 0,6 km/h (0 Bft) N 360 -7,5 C -5,9 C 2,1 km/h (1 Bft)
31.01.2014 02:20 -6,3 C 91 % 1006,2 hPa 0,0 l/m 0,5 km/h (0 Bft) N-NW 337 -7,5 C -5,9 C 0,0 km/h (0 Bft)
31.01.2014 02:25 -6,3 C 90 % 1006,3 hPa 0,0 l/m 0,3 km/h (0 Bft) N 360 -7,7 C -5,9 C 2,1 km/h (1 Bft)
31.01.2014 02:30 -5,8 C 91 % 1006,3 hPa 0,0 l/m 0,6 km/h (0 Bft) NW 315 -7,0 C -5,7 C 1,6 km/h (1 Bft)
31.01.2014 02:35 -5,9 C 91 % 1006,3 hPa 0,0 l/m 1,4 km/h (1 Bft) S-SO 157 -7,1 C -5,7 C 0,0 km/h (0 Bft)
31.01.2014 02:40 -5,9 C 91 % 1006,3 hPa 0,0 l/m 1,0 km/h (0 Bft) SO 135 -7,1 C -5,8 C 0,0 km/h (0 Bft)
31.01.2014 02:45 -5,9 C 91 % 1006,2 hPa 0,0 l/m 0,2 km/h (0 Bft) O 90 -7,1 C -5,8 C 0,0 km/h (0 Bft)
31.01.2014 02:50 -6,1 C 91 % 1006,2 hPa 0,0 l/m 0,2 km/h (0 Bft) O 90 -7,3 C -5,8 C 0,0 km/h (0 Bft)
31.01.2014 02:55 -5,9 C 91 % 1006,2 hPa 0,0 l/m 0,0 km/h (0 Bft) O 90 -7,1 C -5,8 C 0,0 km/h (0 Bft)
31.01.2014 03:00 -5,8 C 91 % 1006,2 hPa 0,0 l/m 0,0 km/h (0 Bft) W-SW 247 -7,0 C -5,7 C 0,0 km/h (0 Bft)
31.01.2014 03:05 -5,4 C 91 % 1006,1 hPa 0,0 l/m 0,3 km/h (0 Bft) NO 45 -6,6 C -5,7 C 2,1 km/h (1 Bft)
31.01.2014 03:10 -5,6 C 91 % 1006,1 hPa 0,0 l/m 1,1 km/h (1 Bft) O-SO 112 -6,8 C -5,5 C 0,0 km/h (0 Bft)
31.01.2014 03:15 -5,6 C 91 % 1006,1 hPa 0,0 l/m 1,3 km/h (1 Bft) NW 315 -6,8 C -5,3 C 2,9 km/h (1 Bft)
31.01.2014 03:20 -5,6 C 91 % 1006,1 hPa 0,0 l/m 0,3 km/h (0 Bft) N-NW 337 -6,8 C -5,3 C 0,0 km/h (0 Bft)
31.01.2014 03:25 -5,5 C 91 % 1006,1 hPa 0,0 l/m 1,0 km/h (0 Bft) N-NW 337 -6,7 C -5,3 C 4,2 km/h (1 Bft)
31.01.2014 03:30 -5,5 C 91 % 1006,1 hPa 0,0 l/m 1,0 km/h (0 Bft) N 360 -6,7 C -5,2 C 0,0 km/h (0 Bft)
31.01.2014 03:35 -5,4 C 91 % 1006,1 hPa 0,0 l/m 0,8 km/h (0 Bft) NO 45 -6,6 C -5,2 C 3,9 km/h (1 Bft)
31.01.2014 03:40 -5,1 C 91 % 1006,1 hPa 0,0 l/m 1,8 km/h (1 Bft) S-SO 157 -6,3 C -5,1 C 2,9 km/h (1 Bft)
31.01.2014 03:45 -4,9 C 91 % 1006,7 hPa 0,0 l/m 3,1 km/h (1 Bft) S 180 -6,1 C -6,0 C 5,0 km/h (1 Bft)
31.01.2014 03:50 -4,9 C 91 % 1006,7 hPa 0,0 l/m 2,7 km/h (1 Bft) O-SO 112 -6,1 C -5,6 C 3,9 km/h (1 Bft)
31.01.2014 03:55 -4,8 C 91 % 1006,7 hPa 0,0 l/m 2,9 km/h (1 Bft) NO 45 -6,0 C -5,6 C 2,4 km/h (1 Bft)
31.01.2014 04:00 -4,6 C 92 % 1006,7 hPa 0,0 l/m 3,2 km/h (1 Bft) O 90 -5,7 C -5,7 C 0,0 km/h (0 Bft)
31.01.2014 04:05 -4,4 C 92 % 1006,6 hPa 0,0 l/m 2,4 km/h (1 Bft) W-NW 292 -5,5 C -4,9 C 3,4 km/h (1 Bft)
31.01.2014 04:10 -4,3 C 92 % 1006,6 hPa 0,0 l/m 1,9 km/h (1 Bft) SW 225 -5,4 C -4,4 C 3,2 km/h (1 Bft)
31.01.2014 04:15 -4,8 C 92 % 1006,6 hPa 0,0 l/m 2,4 km/h (1 Bft) W-SW 247 -5,9 C -4,7 C 0,0 km/h (0 Bft)
31.01.2014 04:20 -4,9 C 91 % 1006,6 hPa 0,0 l/m 1,1 km/h (1 Bft) S 180 -6,1 C -4,6 C 0,0 km/h (0 Bft)
31.01.2014 04:25 -4,9 C 91 % 1006,8 hPa 0,0 l/m 0,2 km/h (0 Bft) S-SO 157 -6,1 C -4,7 C 0,0 km/h (0 Bft)
31.01.2014 04:30 -4,5 C 92 % 1006,8 hPa 0,0 l/m 0,8 km/h (0 Bft) NO 45 -5,6 C -4,6 C 2,1 km/h (1 Bft)
31.01.2014 04:35 -4,3 C 92 % 1006,8 hPa 0,0 l/m 1,9 km/h (1 Bft) O-NO 67 -5,4 C -4,5 C 4,0 km/h (1 Bft)
31.01.2014 04:40 -3,9 C 92 % 1006,8 hPa 0,0 l/m 2,9 km/h (1 Bft) O 90 -5,0 C -5,1 C 4,2 km/h (1 Bft)
31.01.2014 04:45 -3,8 C 92 % 1006,8 hPa 0,0 l/m 2,9 km/h (1 Bft) NO 45 -4,9 C -4,8 C 0,0 km/h (0 Bft)
31.01.2014 04:50 -4,4 C 92 % 1006,8 hPa 0,0 l/m 1,6 km/h (1 Bft) W-NW 292 -5,5 C -4,1 C 0,0 km/h (0 Bft)
31.01.2014 04:55 -4,6 C 92 % 1006,8 hPa 0,0 l/m 0,3 km/h (0 Bft) N-NW 337 -5,7 C -4,3 C 0,0 km/h (0 Bft)
31.01.2014 05:00 -4,7 C 91 % 1006,8 hPa 0,0 l/m 0,2 km/h (0 Bft) N 360 -5,9 C -4,4 C 1,6 km/h (1 Bft)
31.01.2014 05:05 -4,7 C 91 % 1007,0 hPa 0,0 l/m 0,2 km/h (0 Bft) N 360 -5,9 C -4,5 C 0,0 km/h (0 Bft)
31.01.2014 05:10 -4,7 C 91 % 1007,0 hPa 0,0 l/m 0,2 km/h (0 Bft) N-NO 22 -5,9 C -4,5 C 2,3 km/h (1 Bft)
31.01.2014 05:15 -4,6 C 91 % 1007,0 hPa 0,0 l/m 0,2 km/h (0 Bft) N-NO 22 -5,8 C -4,5 C 0,0 km/h (0 Bft)
31.01.2014 05:20 -4,2 C 91 % 1007,0 hPa 0,0 l/m 1,8 km/h (1 Bft) NO 45 -5,4 C -4,4 C 4,2 km/h (1 Bft)
31.01.2014 05:25 -4,2 C 92 % 1007,4 hPa 0,0 l/m 1,8 km/h (1 Bft) O-NO 67 -5,3 C -4,3 C 0,0 km/h (0 Bft)
31.01.2014 05:30 -4,0 C 92 % 1007,4 hPa 0,0 l/m 0,6 km/h (0 Bft) O 90 -5,1 C -4,2 C 0,0 km/h (0 Bft)
31.01.2014 05:35 -4,2 C 92 % 1007,4 hPa 0,0 l/m 0,2 km/h (0 Bft) O-NO 67 -5,3 C -4,2 C 0,0 km/h (0 Bft)
31.01.2014 05:40 -4,1 C 92 % 1007,4 hPa 0,0 l/m 0,0 km/h (0 Bft) W-SW 247 -5,2 C -4,1 C 0,0 km/h (0 Bft)
31.01.2014 05:45 -4,5 C 91 % 1007,9 hPa 0,0 l/m 0,0 km/h (0 Bft) SW 225 -5,7 C -4,2 C 0,0 km/h (0 Bft)
31.01.2014 05:50 -4,5 C 91 % 1007,9 hPa 0,0 l/m 0,0 km/h (0 Bft) N 360 -5,7 C -4,4 C 0,0 km/h (0 Bft)
31.01.2014 05:55 -4,4 C 91 % 1007,9 hPa 0,0 l/m 0,0 km/h (0 Bft) N 360 -5,6 C -4,3 C 0,0 km/h (0 Bft)
31.01.2014 06:00 -3,8 C 92 % 1007,9 hPa 0,0 l/m 1,3 km/h (1 Bft) NO 45 -4,9 C -4,0 C 2,1 km/h (1 Bft)
31.01.2014 06:05 -3,7 C 92 % 1007,6 hPa 0,0 l/m 2,4 km/h (1 Bft) O-NO 67 -4,8 C -4,1 C 3,7 km/h (1 Bft)
31.01.2014 06:10 -3,6 C 92 % 1007,6 hPa 0,0 l/m 2,1 km/h (1 Bft) N 360 -4,7 C -3,5 C 0,0 km/h (0 Bft)
31.01.2014 06:15 -3,8 C 92 % 1007,6 hPa 0,0 l/m 1,6 km/h (1 Bft) N-NW 337 -4,9 C -3,5 C 1,8 km/h (1 Bft)
31.01.2014 06:20 -4,0 C 92 % 1007,6 hPa 0,0 l/m 0,6 km/h (0 Bft) N-NW 337 -5,1 C -3,6 C 0,0 km/h (0 Bft)
31.01.2014 06:25 -4,0 C 92 % 1007,7 hPa 0,0 l/m 0,2 km/h (0 Bft) N-NW 337 -5,1 C -3,7 C 0,0 km/h (0 Bft)
31.01.2014 06:30 -4,0 C 92 % 1007,7 hPa 0,0 l/m 0,0 km/h (0 Bft) N-NO 22 -5,1 C -3,8 C 0,0 km/h (0 Bft)
31.01.2014 06:35 -4,0 C 92 % 1007,7 hPa 0,0 l/m 0,0 km/h (0 Bft) N-NO 22 -5,1 C -3,8 C 0,0 km/h (0 Bft)
31.01.2014 06:40 -3,9 C 92 % 1007,7 hPa 0,0 l/m 0,0 km/h (0 Bft) N-NO 22 -5,0 C -3,8 C 0,0 km/h (0 Bft)
31.01.2014 06:45 -3,8 C 92 % 1007,9 hPa 0,0 l/m 0,2 km/h (0 Bft) N-NW 337 -4,9 C -3,7 C 2,3 km/h (1 Bft)
31.01.2014 06:50 -3,9 C 92 % 1007,9 hPa 0,0 l/m 0,3 km/h (0 Bft) N-NO 22 -5,0 C -3,8 C 0,0 km/h (0 Bft)
31.01.2014 06:55 -4,0 C 92 % 1007,9 hPa 0,0 l/m 0,2 km/h (0 Bft) N-NW 337 -5,1 C -3,8 C 0,0 km/h (0 Bft)
31.01.2014 07:00 -4,0 C 92 % 1007,9 hPa 0,0 l/m 0,0 km/h (0 Bft) N 360 -5,1 C -3,8 C 0,0 km/h (0 Bft)
31.01.2014 07:05 -3,9 C 92 % 1007,7 hPa 0,0 l/m 0,0 km/h (0 Bft) N-NW 337 -5,0 C -3,8 C 0,0 km/h (0 Bft)
31.01.2014 07:10 -3,8 C 92 % 1007,7 hPa 0,0 l/m 0,5 km/h (0 Bft) N-NO 22 -4,9 C -3,8 C 1,6 km/h (1 Bft)
31.01.2014 07:15 -4,0 C 92 % 1007,7 hPa 0,0 l/m 0,5 km/h (0 Bft) N-NO 22 -5,1 C -3,8 C 0,0 km/h (0 Bft)
31.01.2014 07:20 -4,0 C 92 % 1007,7 hPa 0,0 l/m 0,2 km/h (0 Bft) N-NW 337 -5,1 C -3,8 C 0,0 km/h (0 Bft)
31.01.2014 07:25 -4,0 C 92 % 1007,9 hPa 0,0 l/m 0,0 km/h (0 Bft) N-NO 22 -5,1 C -3,9 C 0,0 km/h (0 Bft)
31.01.2014 07:30 -4,2 C 91 % 1007,9 hPa 0,0 l/m 0,3 km/h (0 Bft) S 180 -5,4 C -4,1 C 2,6 km/h (1 Bft)
31.01.2014 07:35 -4,3 C 91 % 1007,9 hPa 0,0 l/m 0,6 km/h (0 Bft) O 90 -5,5 C -4,2 C 0,0 km/h (0 Bft)
31.01.2014 07:40 -4,5 C 91 % 1007,9 hPa 0,0 l/m 0,5 km/h (0 Bft) NO 45 -5,7 C -4,4 C 0,0 km/h (0 Bft)
31.01.2014 07:45 -4,2 C 91 % 1008,2 hPa 0,0 l/m 1,0 km/h (0 Bft) O-NO 67 -5,4 C -4,4 C 1,6 km/h (1 Bft)
31.01.2014 07:50 -3,7 C 92 % 1008,2 hPa 0,0 l/m 3,1 km/h (1 Bft) O 90 -4,8 C -5,1 C 4,8 km/h (1 Bft)
31.01.2014 07:55 -3,6 C 92 % 1008,2 hPa 0,0 l/m 3,7 km/h (1 Bft) O-NO 67 -4,7 C -5,2 C 5,5 km/h (1 Bft)
31.01.2014 08:00 -3,5 C 92 % 1008,2 hPa 0,0 l/m 4,5 km/h (1 Bft) O-SO 112 -4,6 C -5,4 C 3,2 km/h (1 Bft)
31.01.2014 08:05 -3,5 C 92 % 1008,6 hPa 0,0 l/m 3,2 km/h (1 Bft) NO 45 -4,6 C -4,4 C 0,0 km/h (0 Bft)
31.01.2014 08:10 -3,9 C 92 % 1008,6 hPa 0,0 l/m 1,0 km/h (0 Bft) W-NW 292 -5,0 C -3,6 C 0,0 km/h (0 Bft)
31.01.2014 08:15 -3,5 C 92 % 1008,6 hPa 0,0 l/m 1,9 km/h (1 Bft) O 90 -4,6 C -3,6 C 4,3 km/h (1 Bft)
31.01.2014 08:20 -3,2 C 92 % 1008,6 hPa 0,0 l/m 3,2 km/h (1 Bft) NO 45 -4,3 C -4,3 C 7,4 km/h (2 Bft)
31.01.2014 08:25 -3,0 C 92 % 1008,8 hPa 0,0 l/m 3,9 km/h (1 Bft) O 90 -4,1 C -4,6 C 7,2 km/h (2 Bft)
31.01.2014 08:30 -2,7 C 92 % 1008,8 hPa 0,0 l/m 5,5 km/h (1 Bft) O 90 -3,8 C -5,1 C 5,0 km/h (1 Bft)
31.01.2014 08:35 -2,5 C 92 % 1008,8 hPa 0,0 l/m 5,8 km/h (2 Bft) NO 45 -3,6 C -4,9 C 6,9 km/h (2 Bft)
31.01.2014 08:40 -2,5 C 92 % 1008,8 hPa 0,0 l/m 4,7 km/h (1 Bft) O 90 -3,6 C -4,1 C 7,6 km/h (2 Bft)
31.01.2014 08:45 -2,4 C 92 % 1009,1 hPa 0,0 l/m 4,2 km/h (1 Bft) O-NO 67 -3,5 C -3,7 C 1,6 km/h (1 Bft)
31.01.2014 08:50 -2,4 C 92 % 1009,1 hPa 0,0 l/m 2,9 km/h (1 Bft) NO 45 -3,5 C -2,8 C 5,8 km/h (2 Bft)
31.01.2014 08:55 -2,4 C 92 % 1009,1 hPa 0,0 l/m 2,1 km/h (1 Bft) N 360 -3,5 C -2,1 C 0,0 km/h (0 Bft)
31.01.2014 09:00 -2,2 C 92 % 1009,1 hPa 0,0 l/m 3,1 km/h (1 Bft) NO 45 -3,3 C -2,8 C 2,6 km/h (1 Bft)
31.01.2014 09:05 -2,5 C 92 % 1008,8 hPa 0,0 l/m 1,9 km/h (1 Bft) W-SW 247 -3,6 C -2,1 C 0,0 km/h (0 Bft)
31.01.2014 09:10 -2,7 C 92 % 1008,8 hPa 0,0 l/m 1,6 km/h (1 Bft) W-SW 247 -3,8 C -2,3 C 0,0 km/h (0 Bft)
31.01.2014 09:15 -2,9 C 92 % 1008,8 hPa 0,0 l/m 2,1 km/h (1 Bft) N 360 -4,0 C -2,4 C 4,8 km/h (1 Bft)
31.01.2014 09:20 -2,7 C 92 % 1008,8 hPa 0,0 l/m 2,3 km/h (1 Bft) N-NW 337 -3,8 C -2,6 C 3,7 km/h (1 Bft)
31.01.2014 09:23 -2,5 C 92 % 1008,9 hPa 0,0 l/m 3,1 km/h (1 Bft) NO 45 -3,6 C -3,3 C 3,2 km/h (1 Bft)
31.01.2014 09:25 -2,5 C 92 % 1008,9 hPa 0,0 l/m 3,1 km/h (1 Bft) NO 45 -3,6 C -3,3 C 3,2 km/h (1 Bft)
31.01.2014 09:30 -2,3 C 92 % 1008,9 hPa 0,0 l/m 3,1 km/h (1 Bft) N-NW 337 -3,4 C -2,9 C 4,2 km/h (1 Bft)
31.01.2014 09:35 -2,1 C 92 % 1008,9 hPa 0,0 l/m 2,9 km/h (1 Bft) N-NO 22 -3,2 C -2,7 C 2,6 km/h (1 Bft)
31.01.2014 09:40 -1,9 C 92 % 1008,9 hPa 0,0 l/m 2,4 km/h (1 Bft) S 180 -3,0 C -1,9 C 4,2 km/h (1 Bft)
31.01.2014 09:45 -1,9 C 92 % 1009,5 hPa 0,0 l/m 1,3 km/h (1 Bft) S 180 -3,0 C -1,8 C 0,0 km/h (0 Bft)
31.01.2014 09:50 -1,9 C 91 % 1009,5 hPa 0,0 l/m 0,8 km/h (0 Bft) O 90 -3,2 C -1,8 C 0,0 km/h (0 Bft)
31.01.2014 09:55 -1,6 C 91 % 1009,5 hPa 0,0 l/m 0,2 km/h (0 Bft) O 90 -2,9 C -1,7 C 0,0 km/h (0 Bft)
31.01.2014 10:00 -1,3 C 91 % 1009,5 hPa 0,0 l/m 1,0 km/h (0 Bft) O-NO 67 -2,6 C -1,5 C 3,5 km/h (1 Bft)
31.01.2014 10:05 -1,0 C 91 % 1009,3 hPa 0,0 l/m 1,8 km/h (1 Bft) O 90 -2,3 C -1,2 C 0,0 km/h (0 Bft)
31.01.2014 10:10 -0,7 C 91 % 1009,3 hPa 0,0 l/m 1,1 km/h (1 Bft) N 360 -2,0 C -0,7 C 0,0 km/h (0 Bft)
31.01.2014 10:15 -0,5 C 91 % 1009,3 hPa 0,0 l/m 0,0 km/h (0 Bft) N-NO 22 -1,8 C -0,3 C 0,0 km/h (0 Bft)
31.01.2014 10:20 0,0 C 92 % 1009,3 hPa 0,0 l/m 0,2 km/h (0 Bft) N 360 -1,1 C 0,2 C 0,0 km/h (0 Bft)
31.01.2014 10:25 -0,2 C 91 % 1008,7 hPa 0,0 l/m 0,3 km/h (0 Bft) N-NW 337 -1,5 C 0,5 C 0,0 km/h (0 Bft)
31.01.2014 10:30 0,4 C 91 % 1008,7 hPa 0,0 l/m 0,3 km/h (0 Bft) W-SW 247 -0,9 C 1,5 C 1,8 km/h (1 Bft)
31.01.2014 10:35 0,6 C 91 % 1008,7 hPa 0,0 l/m 0,2 km/h (0 Bft) S 180 -0,7 C 2,6 C 0,0 km/h (0 Bft)
31.01.2014 10:40 1,1 C 91 % 1008,7 hPa 0,0 l/m 0,2 km/h (0 Bft) S-SW 202 -0,2 C 4,2 C 0,0 km/h (0 Bft)
31.01.2014 10:45 1,0 C 91 % 1009,8 hPa 0,0 l/m 0,0 km/h (0 Bft) S 180 -0,3 C 5,0 C 0,0 km/h (0 Bft)
31.01.2014 10:50 1,0 C 91 % 1009,8 hPa 0,0 l/m 0,0 km/h (0 Bft) S 180 -0,3 C 5,2 C 0,0 km/h (0 Bft)
31.01.2014 10:55 1,0 C 91 % 1009,8 hPa 0,0 l/m 0,2 km/h (0 Bft) S 180 -0,3 C 5,0 C 1,9 km/h (1 Bft)
31.01.2014 11:00 1,0 C 90 % 1009,8 hPa 0,0 l/m 1,4 km/h (1 Bft) NO 45 -0,5 C 4,3 C 4,0 km/h (1 Bft)
31.01.2014 11:05 1,3 C 90 % 1009,9 hPa 0,0 l/m 2,3 km/h (1 Bft) NO 45 -0,2 C 4,1 C 0,0 km/h (0 Bft)
31.01.2014 11:10 1,3 C 89 % 1009,9 hPa 0,0 l/m 1,8 km/h (1 Bft) O 90 -0,3 C 4,7 C 3,1 km/h (1 Bft)
31.01.2014 11:15 1,2 C 89 % 1009,9 hPa 0,0 l/m 0,8 km/h (0 Bft) S-SW 202 -0,4 C 4,8 C 0,0 km/h (0 Bft)
31.01.2014 11:20 1,2 C 88 % 1009,9 hPa 0,0 l/m 1,8 km/h (1 Bft) S 180 -0,6 C 4,3 C 2,9 km/h (1 Bft)
31.01.2014 11:25 1,4 C 88 % 1010,1 hPa 0,0 l/m 1,9 km/h (1 Bft) O-NO 67 -0,4 C 4,8 C 3,5 km/h (1 Bft)
31.01.2014 11:30 1,7 C 88 % 1010,1 hPa 0,0 l/m 1,3 km/h (1 Bft) SO 135 -0,1 C 5,2 C 0,0 km/h (0 Bft)
31.01.2014 11:35 2,0 C 87 % 1010,1 hPa 0,0 l/m 0,6 km/h (0 Bft) O-SO 112 0,1 C 6,2 C 0,0 km/h (0 Bft)
31.01.2014 11:40 1,8 C 87 % 1010,1 hPa 0,0 l/m 0,2 km/h (0 Bft) W 270 -0,1 C 7,5 C 0,0 km/h (0 Bft)
31.01.2014 11:45 2,1 C 86 % 1009,9 hPa 0,0 l/m 0,0 km/h (0 Bft) W 270 0,0 C 8,5 C 0,0 km/h (0 Bft)
31.01.2014 11:50 2,0 C 86 % 1009,9 hPa 0,0 l/m 0,5 km/h (0 Bft) NO 45 -0,1 C 9,7 C 0,0 km/h (0 Bft)
31.01.2014 11:55 2,2 C 86 % 1009,9 hPa 0,0 l/m 0,5 km/h (0 Bft) NO 45 0,1 C 10,0 C 0,0 km/h (0 Bft)
31.01.2014 12:00 2,3 C 82 % 1009,9 hPa 0,0 l/m 0,8 km/h (0 Bft) N 360 -0,4 C 10,2 C 3,2 km/h (1 Bft)
31.01.2014 12:05 2,5 C 82 % 1010,4 hPa 0,0 l/m 1,8 km/h (1 Bft) N 360 -0,3 C 9,1 C 0,0 km/h (0 Bft)
31.01.2014 12:10 3,9 C 82 % 1010,4 hPa 0,0 l/m 1,3 km/h (1 Bft) N 360 1,1 C 8,2 C 0,0 km/h (0 Bft)
31.01.2014 12:15 4,6 C 83 % 1010,4 hPa 0,0 l/m 0,6 km/h (0 Bft) W-SW 247 2,0 C 8,4 C 0,0 km/h (0 Bft)
31.01.2014 12:20 4,3 C 79 % 1010,4 hPa 0,0 l/m 0,8 km/h (0 Bft) N-NW 337 1,0 C 9,0 C 2,9 km/h (1 Bft)
31.01.2014 12:25 4,7 C 81 % 1010,4 hPa 0,0 l/m 0,6 km/h (0 Bft) N-NO 22 1,7 C 9,2 C 0,0 km/h (0 Bft)
31.01.2014 12:30 4,5 C 73 % 1010,4 hPa 0,0 l/m 0,8 km/h (0 Bft) W-NW 292 0,1 C 9,9 C 0,0 km/h (0 Bft)
31.01.2014 12:35 5,1 C 76 % 1010,4 hPa 0,0 l/m 1,6 km/h (1 Bft) W 270 1,2 C 10,0 C 3,7 km/h (1 Bft)
31.01.2014 12:40 5,1 C 79 % 1010,4 hPa 0,0 l/m 2,1 km/h (1 Bft) W-SW 247 1,8 C 10,8 C 0,0 km/h (0 Bft)
31.01.2014 12:45 4,2 C 76 % 1010,9 hPa 0,0 l/m 1,6 km/h (1 Bft) W 270 0,4 C 11,6 C 0,0 km/h (0 Bft)
31.01.2014 12:50 3,9 C 80 % 1010,9 hPa 0,0 l/m 0,6 km/h (0 Bft) S-SW 202 0,8 C 12,4 C 0,0 km/h (0 Bft)
31.01.2014 12:55 3,4 C 78 % 1010,9 hPa 0,0 l/m 2,1 km/h (1 Bft) N-NW 337 -0,1 C 12,4 C 5,3 km/h (1 Bft)
31.01.2014 13:00 3,2 C 77 % 1010,9 hPa 0,0 l/m 3,2 km/h (1 Bft) N 360 -0,4 C 11,5 C 3,4 km/h (1 Bft)
31.01.2014 13:05 3,1 C 76 % 1011,0 hPa 0,0 l/m 2,9 km/h (1 Bft) W-NW 292 -0,7 C 11,3 C 2,9 km/h (1 Bft)
31.01.2014 13:10 3,0 C 78 % 1011,0 hPa 0,0 l/m 1,4 km/h (1 Bft) N 360 -0,5 C 11,5 C 0,0 km/h (0 Bft)
31.01.2014 13:15 3,1 C 79 % 1011,0 hPa 0,0 l/m 0,6 km/h (0 Bft) N 360 -0,2 C 12,1 C 0,0 km/h (0 Bft)
31.01.2014 13:20 3,0 C 79 % 1011,0 hPa 0,0 l/m 0,2 km/h (0 Bft) N-NO 22 -0,3 C 12,7 C 0,0 km/h (0 Bft)
31.01.2014 13:25 3,0 C 80 % 1010,6 hPa 0,0 l/m 0,6 km/h (0 Bft) N-NO 22 -0,1 C 13,0 C 3,2 km/h (1 Bft)
31.01.2014 13:30 3,1 C 80 % 1010,6 hPa 0,0 l/m 0,8 km/h (0 Bft) N 360 -0,0 C 12,9 C 2,7 km/h (1 Bft)
31.01.2014 13:35 3,1 C 80 % 1010,6 hPa 0,0 l/m 1,0 km/h (0 Bft) N-NO 22 -0,0 C 13,0 C 0,0 km/h (0 Bft)
31.01.2014 13:40 3,2 C 78 % 1010,6 hPa 0,0 l/m 0,6 km/h (0 Bft) W 270 -0,3 C 13,3 C 0,0 km/h (0 Bft)
31.01.2014 13:45 3,3 C 79 % 1010,5 hPa 0,0 l/m 0,8 km/h (0 Bft) NW 315 0,0 C 13,0 C 2,1 km/h (1 Bft)
31.01.2014 13:50 3,3 C 77 % 1010,5 hPa 0,0 l/m 0,8 km/h (0 Bft) W 270 -0,3 C 13,0 C 1,8 km/h (1 Bft)
31.01.2014 13:55 3,5 C 78 % 1010,5 hPa 0,0 l/m 0,3 km/h (0 Bft) W-NW 292 0,0 C 12,7 C 0,0 km/h (0 Bft)
31.01.2014 14:00 3,7 C 78 % 1010,5 hPa 0,0 l/m 0,2 km/h (0 Bft) N 360 0,2 C 13,4 C 0,0 km/h (0 Bft)
31.01.2014 14:05 4,4 C 76 % 1010,8 hPa 0,0 l/m 0,6 km/h (0 Bft) W-SW 247 0,5 C 13,7 C 5,1 km/h (1 Bft)
31.01.2014 14:10 5,4 C 73 % 1010,8 hPa 0,0 l/m 1,1 km/h (1 Bft) W-SW 247 1,0 C 13,1 C 0,0 km/h (0 Bft)
31.01.2014 14:15 6,3 C 70 % 1010,8 hPa 0,0 l/m 1,6 km/h (1 Bft) S 180 1,2 C 13,3 C 4,5 km/h (1 Bft)
31.01.2014 14:20 6,9 C 66 % 1010,8 hPa 0,0 l/m 1,6 km/h (1 Bft) S 180 1,0 C 12,7 C 0,0 km/h (0 Bft)
31.01.2014 14:25 7,1 C 64 % 1011,1 hPa 0,0 l/m 1,4 km/h (1 Bft) SW 225 0,8 C 12,8 C 0,0 km/h (0 Bft)
31.01.2014 14:30 7,1 C 59 % 1011,1 hPa 0,0 l/m 0,2 km/h (0 Bft) NW 315 -0,4 C 13,2 C 2,4 km/h (1 Bft)
31.01.2014 14:35 7,2 C 58 % 1011,1 hPa 0,0 l/m 0,3 km/h (0 Bft) N-NO 22 -0,5 C 13,4 C 0,0 km/h (0 Bft)
31.01.2014 14:40 7,8 C 59 % 1011,1 hPa 0,0 l/m 0,3 km/h (0 Bft) W-NW 292 0,3 C 13,4 C 0,0 km/h (0 Bft)
31.01.2014 14:45 6,6 C 56 % 1010,7 hPa 0,0 l/m 1,1 km/h (1 Bft) O-SO 112 -1,5 C 13,3 C 4,7 km/h (1 Bft)
31.01.2014 14:50 5,8 C 59 % 1010,7 hPa 0,0 l/m 2,3 km/h (1 Bft) SO 135 -1,6 C 12,3 C 1,6 km/h (1 Bft)
31.01.2014 14:55 5,4 C 59 % 1010,7 hPa 0,0 l/m 2,6 km/h (1 Bft) N 360 -2,0 C 11,9 C 3,7 km/h (1 Bft)
31.01.2014 15:00 5,9 C 61 % 1010,7 hPa 0,0 l/m 2,3 km/h (1 Bft) NO 45 -1,0 C 10,9 C 0,0 km/h (0 Bft)
31.01.2014 15:05 6,0 C 60 % 1010,9 hPa 0,0 l/m 1,8 km/h (1 Bft) N-NO 22 -1,2 C 10,1 C 2,4 km/h (1 Bft)
31.01.2014 15:10 6,0 C 59 % 1010,9 hPa 0,0 l/m 1,1 km/h (1 Bft) NO 45 -1,4 C 8,8 C 0,0 km/h (0 Bft)
31.01.2014 15:15 6,4 C 59 % 1010,9 hPa 0,0 l/m 1,3 km/h (1 Bft) N-NW 337 -1,0 C 8,1 C 0,0 km/h (0 Bft)
31.01.2014 15:20 6,0 C 58 % 1010,9 hPa 0,0 l/m 0,8 km/h (0 Bft) N 360 -1,6 C 7,4 C 4,3 km/h (1 Bft)
31.01.2014 15:23 6,0 C 58 % 1010,9 hPa 0,0 l/m 1,3 km/h (1 Bft) N-NO 22 -1,6 C 7,0 C 1,9 km/h (1 Bft)
31.01.2014 15:25 6,0 C 58 % 1010,9 hPa 0,0 l/m 1,3 km/h (1 Bft) N-NO 22 -1,6 C 7,0 C 1,9 km/h (1 Bft)
31.01.2014 15:30 6,5 C 59 % 1010,9 hPa 0,0 l/m 1,3 km/h (1 Bft) NO 45 -0,9 C 6,6 C 0,0 km/h (0 Bft)
31.01.2014 15:35 6,1 C 59 % 1010,9 hPa 0,0 l/m 0,2 km/h (0 Bft) NO 45 -1,3 C 6,2 C 0,0 km/h (0 Bft)
31.01.2014 15:40 5,7 C 59 % 1010,9 hPa 0,0 l/m 0,3 km/h (0 Bft) NO 45 -1,7 C 5,6 C 0,0 km/h (0 Bft)
31.01.2014 15:45 5,1 C 59 % 1011,8 hPa 0,0 l/m 1,4 km/h (1 Bft) O-NO 67 -2,2 C 5,0 C 1,6 km/h (1 Bft)
31.01.2014 15:50 4,3 C 62 % 1011,8 hPa 0,0 l/m 2,1 km/h (1 Bft) NO 45 -2,3 C 4,4 C 5,1 km/h (1 Bft)
31.01.2014 15:55 4,3 C 63 % 1011,8 hPa 0,0 l/m 2,1 km/h (1 Bft) N 360 -2,1 C 4,2 C 1,8 km/h (1 Bft)
31.01.2014 16:00 3,9 C 64 % 1011,8 hPa 0,0 l/m 1,8 km/h (1 Bft) NO 45 -2,3 C 4,0 C 3,2 km/h (1 Bft)
31.01.2014 16:05 3,7 C 65 % 1010,6 hPa 0,0 l/m 1,9 km/h (1 Bft) NO 45 -2,3 C 3,9 C 2,9 km/h (1 Bft)
31.01.2014 16:10 3,4 C 67 % 1010,6 hPa 0,0 l/m 2,6 km/h (1 Bft) NO 45 -2,1 C 3,5 C 3,1 km/h (1 Bft)
31.01.2014 16:15 3,3 C 67 % 1010,6 hPa 0,0 l/m 2,6 km/h (1 Bft) NO 45 -2,2 C 3,3 C 4,8 km/h (1 Bft)
31.01.2014 16:20 2,9 C 69 % 1010,6 hPa 0,0 l/m 3,2 km/h (1 Bft) NO 45 -2,2 C 2,8 C 4,0 km/h (1 Bft)
31.01.2014 16:25 2,9 C 71 % 1010,6 hPa 0,0 l/m 2,9 km/h (1 Bft) O-NO 67 -1,8 C 2,8 C 2,7 km/h (1 Bft)
31.01.2014 16:30 2,5 C 71 % 1010,6 hPa 0,0 l/m 2,3 km/h (1 Bft) NO 45 -2,2 C 2,6 C 2,4 km/h (1 Bft)
31.01.2014 16:35 2,4 C 72 % 1010,6 hPa 0,0 l/m 2,4 km/h (1 Bft) NO 45 -2,1 C 2,4 C 4,3 km/h (1 Bft)
31.01.2014 16:40 2,0 C 73 % 1010,6 hPa 0,0 l/m 2,3 km/h (1 Bft) NO 45 -2,3 C 1,9 C 1,8 km/h (1 Bft)
31.01.2014 16:45 1,8 C 74 % 1010,6 hPa 0,0 l/m 2,4 km/h (1 Bft) O 90 -2,3 C 1,8 C 3,5 km/h (1 Bft)
31.01.2014 16:50 1,5 C 74 % 1010,6 hPa 0,0 l/m 1,9 km/h (1 Bft) NO 45 -2,6 C 1,4 C 0,0 km/h (0 Bft)
31.01.2014 16:55 1,1 C 75 % 1010,6 hPa 0,0 l/m 1,8 km/h (1 Bft) O 90 -2,8 C 1,1 C 3,1 km/h (1 Bft)
31.01.2014 17:00 1,0 C 76 % 1010,6 hPa 0,0 l/m 1,8 km/h (1 Bft) O 90 -2,7 C 0,8 C 2,7 km/h (1 Bft)
31.01.2014 17:05 0,8 C 76 % 1010,8 hPa 0,0 l/m 1,9 km/h (1 Bft) O 90 -2,9 C 0,6 C 1,9 km/h (1 Bft)
31.01.2014 17:10 0,7 C 77 % 1010,8 hPa 0,0 l/m 2,4 km/h (1 Bft) O 90 -2,9 C 0,2 C 3,7 km/h (1 Bft)
31.01.2014 17:15 0,7 C 77 % 1010,8 hPa 0,0 l/m 2,9 km/h (1 Bft) O-SO 112 -2,9 C -0,2 C 3,9 km/h (1 Bft)
31.01.2014 17:20 0,6 C 78 % 1010,8 hPa 0,0 l/m 3,2 km/h (1 Bft) O-NO 67 -2,8 C -0,7 C 5,5 km/h (1 Bft)
31.01.2014 17:25 0,5 C 78 % 1011,1 hPa 0,0 l/m 3,7 km/h (1 Bft) O 90 -2,9 C -1,2 C 4,3 km/h (1 Bft)
31.01.2014 17:30 0,3 C 79 % 1011,1 hPa 0,0 l/m 4,5 km/h (1 Bft) O 90 -2,9 C -1,8 C 4,0 km/h (1 Bft)
31.01.2014 17:35 0,3 C 79 % 1011,1 hPa 0,0 l/m 4,2 km/h (1 Bft) O 90 -2,9 C -1,9 C 3,2 km/h (1 Bft)
31.01.2014 17:40 0,1 C 79 % 1011,1 hPa 0,0 l/m 3,4 km/h (1 Bft) W-NW 292 -3,1 C -1,8 C 4,5 km/h (1 Bft)
31.01.2014 17:45 -0,3 C 80 % 1011,2 hPa 0,0 l/m 3,5 km/h (1 Bft) NO 45 -3,3 C -2,2 C 4,7 km/h (1 Bft)
31.01.2014 17:50 -0,3 C 81 % 1011,2 hPa 0,0 l/m 4,5 km/h (1 Bft) O 90 -3,2 C -2,6 C 4,8 km/h (1 Bft)
31.01.2014 17:55 -0,3 C 81 % 1011,2 hPa 0,0 l/m 4,5 km/h (1 Bft) NO 45 -3,2 C -2,6 C 5,6 km/h (1 Bft)
31.01.2014 18:00 -0,4 C 82 % 1011,2 hPa 0,0 l/m 3,2 km/h (1 Bft) O 90 -3,1 C -2,0 C 0,0 km/h (0 Bft)
31.01.2014 18:05 -1,0 C 81 % 1011,2 hPa 0,0 l/m 1,9 km/h (1 Bft) O-NO 67 -3,8 C -1,7 C 0,0 km/h (0 Bft)
31.01.2014 18:10 -1,0 C 82 % 1011,2 hPa 0,0 l/m 1,0 km/h (0 Bft) O 90 -3,7 C -2,0 C 2,3 km/h (1 Bft)
31.01.2014 18:15 -0,9 C 83 % 1011,2 hPa 0,0 l/m 2,1 km/h (1 Bft) O-SO 112 -3,4 C -2,0 C 3,2 km/h (1 Bft)
31.01.2014 18:20 -0,5 C 83 % 1011,2 hPa 0,0 l/m 4,3 km/h (1 Bft) O-NO 67 -3,0 C -3,3 C 6,3 km/h (2 Bft)
31.01.2014 18:25 -0,7 C 84 % 1011,5 hPa 0,0 l/m 4,8 km/h (1 Bft) NO 45 -3,1 C -3,3 C 6,0 km/h (2 Bft)
31.01.2014 18:30 -0,8 C 84 % 1011,5 hPa 0,0 l/m 4,8 km/h (1 Bft) NO 45 -3,2 C -3,1 C 3,5 km/h (1 Bft)
31.01.2014 18:35 -0,8 C 84 % 1011,5 hPa 0,0 l/m 5,0 km/h (1 Bft) O 90 -3,2 C -3,4 C 6,9 km/h (2 Bft)
31.01.2014 18:40 -0,6 C 85 % 1011,5 hPa 0,0 l/m 4,2 km/h (1 Bft) O 90 -2,8 C -3,1 C 1,9 km/h (1 Bft)
31.01.2014 18:45 -0,6 C 85 % 1011,5 hPa 0,0 l/m 4,5 km/h (1 Bft) NO 45 -2,8 C -3,5 C 6,4 km/h (2 Bft)
31.01.2014 18:50 -0,9 C 85 % 1011,5 hPa 0,0 l/m 5,0 km/h (1 Bft) O-SO 112 -3,1 C -3,6 C 7,4 km/h (2 Bft)
31.01.2014 18:55 -0,7 C 85 % 1011,5 hPa 0,0 l/m 4,7 km/h (1 Bft) NO 45 -2,9 C -3,1 C 0,0 km/h (0 Bft)
31.01.2014 19:00 -0,7 C 85 % 1011,5 hPa 0,0 l/m 3,1 km/h (1 Bft) SO 135 -2,9 C -2,4 C 2,4 km/h (1 Bft)
31.01.2014 19:05 -0,9 C 85 % 1011,6 hPa 0,0 l/m 2,6 km/h (1 Bft) O-SO 112 -3,1 C -2,0 C 7,6 km/h (2 Bft)
31.01.2014 19:10 -0,6 C 86 % 1011,6 hPa 0,0 l/m 4,5 km/h (1 Bft) O-SO 112 -2,6 C -2,9 C 6,4 km/h (2 Bft)
31.01.2014 19:15 -0,6 C 86 % 1011,6 hPa 0,0 l/m 5,3 km/h (1 Bft) NO 45 -2,6 C -3,0 C 5,6 km/h (1 Bft)
31.01.2014 19:20 -0,9 C 86 % 1011,6 hPa 0,0 l/m 3,7 km/h (1 Bft) O-SO 112 -2,9 C -2,0 C 0,0 km/h (0 Bft)
31.01.2014 19:25 -1,2 C 86 % 1011,4 hPa 0,0 l/m 2,9 km/h (1 Bft) S 180 -3,2 C -1,6 C 3,1 km/h (1 Bft)
31.01.2014 19:30 -1,4 C 86 % 1011,4 hPa 0,0 l/m 1,9 km/h (1 Bft) NO 45 -3,4 C -1,5 C 0,0 km/h (0 Bft)
31.01.2014 19:35 -1,7 C 86 % 1011,4 hPa 0,0 l/m 1,0 km/h (0 Bft) NO 45 -3,7 C -1,6 C 0,0 km/h (0 Bft)
31.01.2014 19:40 -1,8 C 86 % 1011,4 hPa 0,0 l/m 0,3 km/h (0 Bft) NO 45 -3,8 C -1,8 C 2,1 km/h (1 Bft)
31.01.2014 19:45 -1,9 C 86 % 1011,6 hPa 0,0 l/m 0,6 km/h (0 Bft) NO 45 -3,9 C -1,9 C 0,0 km/h (0 Bft)
31.01.2014 19:50 -2,3 C 86 % 1011,6 hPa 0,0 l/m 0,5 km/h (0 Bft) NO 45 -4,3 C -2,2 C 0,0 km/h (0 Bft)
31.01.2014 19:55 -2,5 C 86 % 1011,6 hPa 0,0 l/m 0,3 km/h (0 Bft) NO 45 -4,5 C -2,3 C 1,8 km/h (1 Bft)
31.01.2014 20:00 -2,6 C 86 % 1011,6 hPa 0,0 l/m 0,5 km/h (0 Bft) NO 45 -4,6 C -2,4 C 0,0 km/h (0 Bft)
31.01.2014 20:05 -2,5 C 86 % 1011,5 hPa 0,0 l/m 0,3 km/h (0 Bft) NO 45 -4,5 C -2,6 C 0,0 km/h (0 Bft)
31.01.2014 20:10 -2,4 C 87 % 1011,5 hPa 0,0 l/m 0,3 km/h (0 Bft) O 90 -4,3 C -2,6 C 0,0 km/h (0 Bft)
31.01.2014 20:15 -2,3 C 87 % 1011,5 hPa 0,0 l/m 0,3 km/h (0 Bft) O-SO 112 -4,2 C -2,7 C 0,0 km/h (0 Bft)
31.01.2014 20:20 -2,8 C 87 % 1011,5 hPa 0,0 l/m 0,0 km/h (0 Bft) O-SO 112 -4,7 C -2,7 C 0,0 km/h (0 Bft)
31.01.2014 20:25 -3,0 C 87 % 1011,4 hPa 0,0 l/m 0,0 km/h (0 Bft) SO 135 -4,9 C -2,8 C 0,0 km/h (0 Bft)
31.01.2014 20:30 -3,0 C 87 % 1011,4 hPa 0,0 l/m 0,0 km/h (0 Bft) NO 45 -4,9 C -3,1 C 0,0 km/h (0 Bft)
31.01.2014 20:35 -3,3 C 87 % 1011,4 hPa 0,0 l/m 0,0 km/h (0 Bft) NO 45 -5,1 C -3,2 C 0,0 km/h (0 Bft)
31.01.2014 20:40 -3,3 C 87 % 1011,4 hPa 0,0 l/m 0,0 km/h (0 Bft) NO 45 -5,1 C -3,3 C 0,0 km/h (0 Bft)
31.01.2014 20:45 -3,1 C 88 % 1011,2 hPa 0,0 l/m 0,0 km/h (0 Bft) NO 45 -4,8 C -3,1 C 0,0 km/h (0 Bft)
31.01.2014 20:50 -3,0 C 88 % 1011,2 hPa 0,0 l/m 0,0 km/h (0 Bft) O 90 -4,7 C -3,1 C 0,0 km/h (0 Bft)
31.01.2014 20:55 -3,0 C 88 % 1011,2 hPa 0,0 l/m 0,0 km/h (0 Bft) NO 45 -4,7 C -3,1 C 0,0 km/h (0 Bft)
31.01.2014 21:00 -3,5 C 88 % 1011,2 hPa 0,0 l/m 0,0 km/h (0 Bft) NO 45 -5,2 C -3,1 C 0,0 km/h (0 Bft)
31.01.2014 21:05 -3,6 C 88 % 1011,1 hPa 0,0 l/m 0,0 km/h (0 Bft) O-SO 112 -5,3 C -3,4 C 0,0 km/h (0 Bft)
31.01.2014 21:10 -2,9 C 89 % 1011,1 hPa 0,0 l/m 0,8 km/h (0 Bft) S 180 -4,5 C -3,1 C 0,0 km/h (0 Bft)
31.01.2014 21:15 -3,3 C 89 % 1011,1 hPa 0,0 l/m 1,3 km/h (1 Bft) O-SO 112 -4,8 C -3,0 C 3,7 km/h (1 Bft)
31.01.2014 21:20 -3,1 C 89 % 1011,1 hPa 0,0 l/m 1,4 km/h (1 Bft) O-SO 112 -4,6 C -3,3 C 0,0 km/h (0 Bft)
31.01.2014 21:23 -3,1 C 89 % 1010,9 hPa 0,0 l/m 1,0 km/h (0 Bft) W-SW 247 -4,6 C -3,2 C 0,0 km/h (0 Bft)
31.01.2014 21:25 -3,1 C 89 % 1010,9 hPa 0,0 l/m 1,0 km/h (0 Bft) W-SW 247 -4,6 C -3,2 C 0,0 km/h (0 Bft)
31.01.2014 21:30 -3,5 C 89 % 1010,9 hPa 0,0 l/m 0,0 km/h (0 Bft) W-NW 292 -5,0 C -3,3 C 0,0 km/h (0 Bft)
31.01.2014 21:35 -3,4 C 89 % 1010,9 hPa 0,0 l/m 0,3 km/h (0 Bft) S 180 -4,9 C -3,3 C 2,9 km/h (1 Bft)
31.01.2014 21:40 -3,4 C 89 % 1010,9 hPa 0,0 l/m 0,5 km/h (0 Bft) W-NW 292 -4,9 C -3,2 C 0,0 km/h (0 Bft)
31.01.2014 21:45 -3,5 C 89 % 1010,6 hPa 0,0 l/m 0,5 km/h (0 Bft) W-NW 292 -5,0 C -3,3 C 0,0 km/h (0 Bft)
31.01.2014 21:50 -3,1 C 89 % 1010,6 hPa 0,0 l/m 0,2 km/h (0 Bft) W-NW 292 -4,6 C -3,5 C 1,6 km/h (1 Bft)
31.01.2014 21:55 -2,6 C 90 % 1010,6 hPa 0,0 l/m 0,8 km/h (0 Bft) O 90 -4,0 C -3,4 C 3,2 km/h (1 Bft)
31.01.2014 22:00 -2,2 C 90 % 1010,6 hPa 0,0 l/m 2,4 km/h (1 Bft) NO 45 -3,6 C -3,1 C 0,0 km/h (0 Bft)
31.01.2014 22:05 -2,5 C 90 % 1010,5 hPa 0,0 l/m 2,1 km/h (1 Bft) O-NO 67 -3,9 C -2,7 C 2,3 km/h (1 Bft)
31.01.2014 22:10 -2,0 C 90 % 1010,5 hPa 0,0 l/m 1,0 km/h (0 Bft) NO 45 -3,4 C -2,6 C 0,0 km/h (0 Bft)
31.01.2014 22:15 -2,5 C 90 % 1010,5 hPa 0,0 l/m 0,8 km/h (0 Bft) N 360 -3,9 C -2,6 C 0,0 km/h (0 Bft)
31.01.2014 22:20 -3,3 C 90 % 1010,5 hPa 0,0 l/m 0,0 km/h (0 Bft) N 360 -4,7 C -3,0 C 0,0 km/h (0 Bft)
31.01.2014 22:25 -3,5 C 89 % 1010,3 hPa 0,0 l/m 0,0 km/h (0 Bft) O 90 -5,0 C -3,2 C 0,0 km/h (0 Bft)
31.01.2014 22:30 -3,6 C 89 % 1010,3 hPa 0,0 l/m 0,0 km/h (0 Bft) O 90 -5,1 C -3,6 C 0,0 km/h (0 Bft)
31.01.2014 22:35 -3,9 C 89 % 1010,3 hPa 0,0 l/m 0,0 km/h (0 Bft) O 90 -5,4 C -3,5 C 0,0 km/h (0 Bft)
31.01.2014 22:40 -4,0 C 89 % 1010,3 hPa 0,0 l/m 0,0 km/h (0 Bft) O 90 -5,5 C -3,4 C 0,0 km/h (0 Bft)
31.01.2014 22:45 -3,9 C 89 % 1010,2 hPa 0,0 l/m 0,0 km/h (0 Bft) NO 45 -5,4 C -3,5 C 0,0 km/h (0 Bft)
31.01.2014 22:50 -3,8 C 89 % 1010,2 hPa 0,0 l/m 0,0 km/h (0 Bft) N 360 -5,3 C -3,4 C 0,0 km/h (0 Bft)
31.01.2014 22:55 -3,8 C 89 % 1010,2 hPa 0,0 l/m 0,0 km/h (0 Bft) N-NO 22 -5,3 C -3,3 C 0,0 km/h (0 Bft)
31.01.2014 23:00 -3,5 C 89 % 1010,2 hPa 0,0 l/m 0,0 km/h (0 Bft) NO 45 -5,0 C -3,5 C 0,0 km/h (0 Bft)
31.01.2014 23:05 -3,9 C 89 % 1010,0 hPa 0,0 l/m 0,0 km/h (0 Bft) N-NO 22 -5,4 C -3,4 C 0,0 km/h (0 Bft)
31.01.2014 23:10 -3,9 C 89 % 1010,0 hPa 0,0 l/m 0,0 km/h (0 Bft) N-NW 337 -5,4 C -3,5 C 0,0 km/h (0 Bft)
31.01.2014 23:15 -3,6 C 89 % 1010,0 hPa 0,0 l/m 0,0 km/h (0 Bft) NO 45 -5,1 C -3,6 C 0,0 km/h (0 Bft)
31.01.2014 23:20 -3,7 C 89 % 1010,0 hPa 0,0 l/m 0,0 km/h (0 Bft) NO 45 -5,2 C -3,6 C 0,0 km/h (0 Bft)
31.01.2014 23:25 -3,8 C 89 % 1009,9 hPa 0,0 l/m 0,0 km/h (0 Bft) NO 45 -5,3 C -3,7 C 0,0 km/h (0 Bft)
31.01.2014 23:30 -4,1 C 89 % 1009,9 hPa 0,0 l/m 0,0 km/h (0 Bft) NO 45 -5,6 C -3,7 C 0,0 km/h (0 Bft)
31.01.2014 23:35 -4,1 C 89 % 1009,9 hPa 0,0 l/m 0,0 km/h (0 Bft) NO 45 -5,6 C -3,7 C 0,0 km/h (0 Bft)
31.01.2014 23:40 -4,2 C 89 % 1009,9 hPa 0,0 l/m 0,0 km/h (0 Bft) N-NO 22 -5,7 C -3,9 C 0,0 km/h (0 Bft)
31.01.2014 23:45 -3,5 C 90 % 1009,8 hPa 0,0 l/m 0,3 km/h (0 Bft) N-NW 337 -4,9 C -3,9 C 2,9 km/h (1 Bft)
31.01.2014 23:50 -4,0 C 90 % 1009,8 hPa 0,0 l/m 0,6 km/h (0 Bft) N 360 -5,4 C -3,6 C 0,0 km/h (0 Bft)
31.01.2014 23:55 -3,6 C 90 % 1009,8 hPa 0,0 l/m 0,5 km/h (0 Bft) N 360 -5,0 C -3,6 C 1,6 km/h (1 Bft)
_ Min-Zeit 00:35 14:45 00:40 - 23:40 - - 02:25 00:50 23:50
Minimum _ -6,4 C 56 % 1003,8 hPa - 0,0 km/h (0 Bft) - - -7,7 C -6,1 C 0,0 km/h (0 Bft)
_ Max-Zeit 14:40 10:20 16:00 23:55 08:35 - - 12:15 14:05 19:05
Maximum _ 7,8 C 92 % 1011,8 hPa 0,0 l/m 5,8 km/h
NO (2 Bft)
- - 2,0 C 13,7 C 7,6 km/h
O-SO (2 Bft)
Durchschnitt _ -1,5 C 85 % 1009,2 hPa #0,0 l/m 1,4 km/h (1 Bft) NO - -3,8 C -0,5 C 1,6 km/h (1 Bft)